Location: ??????????
(54.8537°N, 38.8755°E)
Time: 07:25:33
(UTC+00:00)

Tiros 1 - Visible Passes

Search period start: 19 September 2024 00:00
Search period end: 29 September 2024 00:00
Orbit: 623 x 655 km, 48.4° (Epoch: 19 September)

Date Brightness Start Highest point End Pass type
(mag) Time Alt. Az. Time Alt. Az. Time Alt. Az.
19 Sep 9.0 16:29:40 10° WSW 16:33:08 21° SSW 16:36:37 10° SSE visible
20 Sep 9.5 16:53:45 10° WSW 16:56:06 14° SW 16:58:27 10° S visible
22 Sep 9.6 15:58:28 10° WSW 16:01:08 15° SSW 16:03:48 10° S visible
